Location: Brockett
(40.8000°S, 175.4500°E)
Time: 10:38:19
(UTC+00:00)

Lacrosse 5 rocket - Visible Passes

Search period start: 09 November 2025 00:00
Search period end: 19 November 2025 00:00
Orbit: 405 x 502 km, 57.0° (Epoch: 08 November)

Date Brightness Start Highest point End Pass type
(mag) Time Alt. Az. Time Alt. Az. Time Alt. Az.
09 Nov 2.2 08:45:55 10° SSW 08:49:32 35° SE 08:50:58 26° E visible
09 Nov 3.5 10:23:11 10° WSW 10:24:38 19° W 10:24:38 19° W visible
10 Nov 2.6 08:09:52 10° SSW 08:13:14 27° SE 08:16:03 13° E visible
10 Nov 2.3 09:46:46 10° WSW 09:49:43 35° WNW 09:49:43 35° WNW visible
11 Nov 1.4 09:10:23 10° SW 09:14:12 56° NW 09:14:48 49° NNW visible
12 Nov 1.1 08:34:02 10° SW 08:37:55 81° NW 08:39:53 28° NE visible
13 Nov 1.2 07:57:40 10° SW 08:01:33 72° SE 08:04:58 13° NE visible
13 Nov 3.6 09:36:27 10° W 09:38:09 12° WNW 09:38:38 12° NW visible
14 Nov 3.3 08:59:11 10° W 09:01:51 18° WNW 09:03:44 13° NNW visible
15 Nov 2.9 08:22:16 10° WSW 08:25:29 25° NW 08:28:42 10° N visible
16 Nov 2.4 07:45:28 10° WSW 07:49:02 36° NW 07:52:36 10° NNE visible
